Regional Weather Roundup
Issued by NWS

Home | Current Version | Previous Version | Graphics & Text | Print | Product List | Glossary On
Versions: 1 2 3 4 5 6 7 8 9 10 11 12 13 14 15 16 17 18 19 20 21 22 23 24 25 26 27 28 29 30 31 32 33 34 35 36 37 38 39 40 41 42 43 44 45 46 47 48 49 50
000
ASUS43 KMPX 090101
RWRMN
WEATHER ROUNDUP FOR MINNESOTA
NATIONAL WEATHER SERVICE TWIN CITIES/CHANHASSEN MN
700 PM CST MON FEB 08 2016


NOTE: "FAIR" INDICATES FEW OR NO CLOUDS BELOW 12,000 FEET WITH NO
SIGNIFICANT WEATHER AND/OR OBSTRUCTIONS TO VISIBILITY. N/A MEANS
CURRENT SKY AND/OR WEATHER CONDITIONS ARE NOT AVAILABLE.

MNZ060>063-068>070-090200-
   Twin Cities Metro

CITY           SKY/WX    TMP DP  RH WIND       PRES   REMARKS
TWIN CITIES    CLOUDY    15   6  67 NW22G30   29.97R WCI  -3
ST PAUL        FLURRIES  15   8  73 NW20      29.98S WCI  -2
CRYSTAL        CLOUDY    16   6  65 NW17      29.97S WCI   0
BLAINE         CLOUDY    18   9  68 NW17G23   29.96S WCI   2
LAKEVILLE      CLOUDY    14   9  79 NW15G23   29.95S WCI  -1
EDEN PRAIRIE   CLOUDY    16   7  67 NW16G24   29.97R WCI   1
SOUTH ST PAUL  CLOUDY    17   8  68 NW15G24   29.96S WCI   2
LAKE ELMO      LGT SNOW  16  10  79 NW10      29.96S WCI   3
$$
MNZ001>005-007-008-013>017-022>024-027-028-090200-
   Northwest Minnesota

CITY           SKY/WX    TMP DP  RH WIND       PRES   REMARKS
BEMIDJI        FLURRIES   7   2  78 NW16G23   30.06S WCI -11
HALLOCK        CLOUDY    10   5  79 N20       30.24S WCI  -8
ROSEAU         CLOUDY     9   1  72 N17G24    30.16S WCI -10
WARROAD        CLOUDY     7   1  78 NW13G23   30.15S WCI  -9
CROOKSTON      PTCLDY     9   3  78 N26       30.22F WCI -13
FOSSTON        LGT SNOW   7   3  85 NW20      30.13S WCI -13
DETROIT LAKES  CLOUDY    10   5  79 N20G28    30.12R WCI  -8
MOORHEAD       CLOUDY     9   3  78 N25       30.22R WCI -13
PARK RAPIDS    CLOUDY     9   2  73 NW14      30.04S WCI  -7
MAHNOMEN       CLOUDY     8   4  85 NW24G30   30.13R FOG     WCI -14
$$
MNZ006-009>011-018-025>026-090200-
   North Central Minnesota

CITY           SKY/WX    TMP DP  RH WIND       PRES   REMARKS
BAUDETTE       FLURRIES   6  -2  69 N15G24    30.09R WCI -12
FLAG ISLAND    CLOUDY     7   0  72 N24       30.14S WCI -15
INTL FALLS     FLURRIES   4  -3  73 NW18G26   30.05R WCI -16
WASKISH        FLURRIES   7   1  78 NW9G16    30.10R WCI  -7
LONGVILLE      LGT SNOW   9   1  72 NW7G16    30.03R WCI  -3
GRAND RAPIDS   CLOUDY     7  -2  66 NW23      29.99R WCI -14
CRANE LAKE     CLOUDY     3   0  85 NW10G21   30.01R WCI -12
ORR            FLURRIES   3  -2  78 NW14G20   29.96S WCI -15
COOK           FLURRIES   3   0  85 NW7       29.98R WCI  -9
WALKER         CLOUDY     8   1  73 NW15G26   30.04S WCI -10
$$
MNZ012-019>021-037-090200-
   Northeast Minnesota

CITY           SKY/WX    TMP DP  RH WIND       PRES   REMARKS
DULUTH         FLURRIES   6  -1  73 NW16G26   29.90S WCI -12
ELY            CLOUDY     3   0  85 NW10G20   29.91S WCI -12
HIBBING        LGT SNOW   4  -2  76 NW18G31   29.96R WCI -16
EVELETH        FLURRIES   7   0  72 NW15G24   29.95S WCI -11
DULUTH HARBOR  CLOUDY    12   3  67 NW10G21   29.98R WCI  -1
TWO HARBORS    CLOUDY    10   1  67 NW7G18    29.88R WCI   0
SILVER BAY     CLOUDY    10   1  67 NW8       29.87R WCI  -1
GRAND MARAIS     N/A     10   1  67 N9G28     29.86S WCI  -3
G MARAIS ARPRT LGT SNOW   3  -4  72 NW16G25   29.76S WCI -16
$$
MNZ029>031-032-039>041-046>048-054>057-064-090200-
   West Central Minnesota

CITY           SKY/WX    TMP DP  RH WIND       PRES   REMARKS
FERGUS FALLS   CLOUDY     9   1  72 N22G33    30.18S WCI -11
WHEATON        MOCLDY    10   7  85 N16       30.20S WCI  -7
MORRIS         MOCLDY    10   1  67 N32G38    30.11S WCI -12
ALEXANDRIA     CLOUDY    10   1  67 NW21G31   30.06S WCI  -9
ELBOW LAKE     MOCLDY     8   0  69 N20G29    30.13S WCI -11
WADENA         CLOUDY     9   3  78 NW18G26   30.06R WCI -10
GLENWOOD       CLOUDY    10   3  72 NW23G32   30.06S WCI -10
APPLETON       MOCLDY    12   7  79 N23G30    30.15R WCI  -7
BENSON         CLOUDY    10   1  67 N16G28    30.11R WCI  -7
ORTONVILLE     FLURRIES  12   7  79 N22G30    30.14S WCI  -7
MADISON        CLOUDY    16   9  73 N22G36    30.15R WCI  -2
WILLMAR        CLOUDY    12   5  73 NW29      30.07F WCI  -9
$$
MNZ033>034-036-042>043-049>051-058-059-090200-
   Central Minnesota

CITY           SKY/WX    TMP DP  RH WIND       PRES   REMARKS
ST CLOUD       CLOUDY    13   3  64 NW16G32   30.00R WCI  -3
SAUK CENTRE    CLOUDY    10   4  75 NW16      30.04S WCI  -7
PAYNESVILLE    CLOUDY    12   5  75 NW16G23   30.04S WCI  -5
AITKIN         FLURRIES  12   1  62 NW10G21   29.98S WCI  -1
PINE RIVER     FLURRIES   9   1  72 NW16G23   30.06R WCI  -9
BRAINERD       MIX PCPN  10   2  69 N23G29    30.01S WCI -10
STAPLES        CLOUDY     9   1  72 N20G30    30.04S WCI -11
LONG PRAIRIE   CLOUDY    10   5  79 NW16      30.03S WCI  -7
LITTLE FALLS   CLOUDY    12   3  67 NW9G22    30.02S WCI   0
LITCHFIELD     CLOUDY    12   7  79 NW18G24   30.02S WCI  -5
BUFFALO        FLURRIES  14   7  72 NW16      30.01S WCI  -2
MAPLE LAKE     FLURRIES  15   8  75 NW15      30.01S WCI   0
$$
MNZ037-044-045-052-053-090200-
   East Central Minnesota

CITY           SKY/WX    TMP DP  RH WIND       PRES   REMARKS
PRINCETON      FLURRIES  14   5  67 NW16G24   29.99S WCI  -2
MORA           FLURRIES  12   5  73 N12G20    29.99S WCI  -2
CAMBRIDGE      CLOUDY    16   5  62 NW10G18   29.97S WCI   3
RUSH CITY      CLOUDY    13   6  73 NW10G18   29.98R WCI   0
MOOSE LAKE     FLURRIES  10   3  72 NW14G25   29.95S WCI  -5
HINCKLEY       FLURRIES  12   5  73 NW18G26   29.96S WCI  -5
CLOQUET        FLURRIES   9   1  72 NW14G20   29.93S WCI  -8
MCGREGOR       CLOUDY    10   3  72 N24       29.98S WCI -10
$$
MNZ071>073-080-081-089-090-097-098-090200-
   Southwest Minnesota

CITY           SKY/WX    TMP DP  RH WIND       PRES   REMARKS
MONTEVIDEO     CLOUDY    12   7  79 N22G35    30.13R WCI  -7
GRANITE FALLS  MOCLDY    15   7  69 NW20G35   30.13R WCI  -2
CANBY          CLOUDY    19  13  78 NW21G28   30.14S WCI   2
MARSHALL       CLOUDY    14   8  77 N20       30.10R WCI  -3
REDWOOD FALLS  CLEAR     13   4  67 NW16G26   30.08R WCI  -3
OLIVIA         PTCLDY    12   5  73 NW23G32   30.06S WCI  -7
PIPESTONE      CLOUDY    19   9  63 N15G23    30.07S WCI   5
WINDOM         CLEAR     10   7  85 NW23      30.04S WCI -10
WORTHINGTON    CLOUDY    12   7  79 N23       30.06S WCI  -7
JACKSON        PTCLDY    14   5  67 NW30G45   30.02S WCI  -7
TRACY          CLOUDY    15  10  79 N21G28    30.08S WCI  -3
SLAYTON        CLOUDY    14  11  89 NW17G28   30.06S WCI  -3
$$
MNZ065>067-074>077-082>085-091>093-090200-
   South Central Minnesota

CITY           SKY/WX    TMP DP  RH WIND       PRES   REMARKS
MANKATO        CLOUDY   N/A N/A N/A NW23G29   29.98S
NEW ULM        CLOUDY    12   3  67 NW23G32   30.02S WCI  -7
ST JAMES       MOCLDY    14   7  73 NW25G33   30.05S WCI  -5
FAIRMONT       MOCLDY    14   3  62 NW29G37   29.99R WCI  -7
GLENCOE        CLOUDY    15   8  73 NW22G30   30.00S WCI  -3
FARIBAULT      CLOUDY    16   9  73 NW18      29.96S WCI  -1
OWATONNA       CLOUDY    16   9  73 NW22G29   29.94S WCI  -2
WASECA         LGT SNOW  14  10  85 NW22G31   29.98S WCI  -4
ALBERT LEA     FLURRIES  16  10  79 NW16G28   29.94R WCI   0
$$
MNZ078>079-086>088-094>096-090200-
   Southeast Minnesota

CITY           SKY/WX    TMP DP  RH WIND       PRES   REMARKS
ROCHESTER      LGT SNOW  12   8  84 NW20      29.89S FOG     WCI  -6
RED WING       LGT SNOW  16   9  73 NW8       29.94S WCI   5
STANTON        LGT SNOW  17  10  75 NW18      29.94S WCI   0
DODGE CENTER   FLURRIES  12   9  85 NW15G23   29.90S WCI  -4
WINONA         LGT SNOW  18  12  79 NW9G16    29.93S WCI   6
AUSTIN         LGT SNOW  14  10  85 NW17      29.91S WCI  -3
PRESTON        LGT SNOW  12   8  85 NW14      29.89S WCI  -3
$$
ABBREVIATIONS USED IN REMARKS
   TC - TEMPERATURES IN CELSIUS
  WCI - WIND CHILL INDEX
   HX - HEAT INDEX
  VSB - VISIBILITY
$$




USA.gov is the U.S. government's official web portal to all federal, state and local government web resources and services.